﻿測定場所 (Monitoring sites),日付 (Measurement date),時間 (Measurement time),線量率 最大値 (max) μGy/h,線量率 最小値 (min) μGy/h,線量率 平均値 (average) μGy/h,
小平 (Kodaira),2012-11-18,23:01～24:00,0.0403,0.0342,0.0365,
小平 (Kodaira),2012-11-18,22:01～23:00,0.0395,0.0341,0.0366,
小平 (Kodaira),2012-11-18,21:01～22:00,0.0407,0.0348,0.0366,
小平 (Kodaira),2012-11-18,20:01～21:00,0.0398,0.0343,0.0366,
小平 (Kodaira),2012-11-18,19:01～20:00,0.0394,0.0346,0.0366,
小平 (Kodaira),2012-11-18,18:01～19:00,0.0389,0.0349,0.0366,
小平 (Kodaira),2012-11-18,17:01～18:00,0.0391,0.0348,0.0367,
小平 (Kodaira),2012-11-18,16:01～17:00,0.0397,0.0348,0.0365,
小平 (Kodaira),2012-11-18,15:01～16:00,0.0384,0.0344,0.0365,
小平 (Kodaira),2012-11-18,14:01～15:00,0.0413,0.0346,0.0365,
小平 (Kodaira),2012-11-18,13:01～14:00,0.0395,0.0351,0.0368,
小平 (Kodaira),2012-11-18,12:01～13:00,0.0395,0.0348,0.0368,
小平 (Kodaira),2012-11-18,11:01～12:00,0.0387,0.0340,0.0365,
小平 (Kodaira),2012-11-18,10:01～11:00,0.0405,0.0349,0.0369,
小平 (Kodaira),2012-11-18,09:01～10:00,0.0412,0.0346,0.0366,
小平 (Kodaira),2012-11-18,08:01～09:00,0.0387,0.0347,0.0364,
小平 (Kodaira),2012-11-18,07:01～08:00,0.0386,0.0342,0.0362,
小平 (Kodaira),2012-11-18,06:01～07:00,0.0376,0.0345,0.0360,
小平 (Kodaira),2012-11-18,05:01～06:00,0.0392,0.0353,0.0367,
小平 (Kodaira),2012-11-18,04:01～05:00,0.0390,0.0347,0.0363,
小平 (Kodaira),2012-11-18,03:01～04:00,0.0395,0.0346,0.0365,
小平 (Kodaira),2012-11-18,02:01～03:00,0.0394,0.0342,0.0365,
小平 (Kodaira),2012-11-18,01:01～02:00,0.0393,0.0340,0.0361,
小平 (Kodaira),2012-11-18,00:01～01:00,0.0383,0.0342,0.0364,
小平 (Kodaira),2012-11-17,23:01～24:00,0.0398,0.0343,0.0363,
小平 (Kodaira),2012-11-17,22:01～23:00,0.0420,0.0357,0.0378,
小平 (Kodaira),2012-11-17,21:01～22:00,0.0499,0.0374,0.0426,
小平 (Kodaira),2012-11-17,20:01～21:00,0.0590,0.0465,0.0531,
小平 (Kodaira),2012-11-17,19:01～20:00,0.0598,0.0492,0.0549,
小平 (Kodaira),2012-11-17,18:01～19:00,0.0556,0.0474,0.0515,
小平 (Kodaira),2012-11-17,17:01～18:00,0.0524,0.0451,0.0489,
小平 (Kodaira),2012-11-17,16:01～17:00,0.0491,0.0370,0.0434,
小平 (Kodaira),2012-11-17,15:01～16:00,0.0419,0.0356,0.0379,
小平 (Kodaira),2012-11-17,14:01～15:00,0.0405,0.0352,0.0374,
小平 (Kodaira),2012-11-17,13:01～14:00,0.0422,0.0359,0.0376,
小平 (Kodaira),2012-11-17,12:01～13:00,0.0400,0.0350,0.0369,
小平 (Kodaira),2012-11-17,11:01～12:00,0.0385,0.0341,0.0364,
小平 (Kodaira),2012-11-17,10:01～11:00,0.0414,0.0351,0.0380,
小平 (Kodaira),2012-11-17,09:01～10:00,0.0412,0.0362,0.0382,
小平 (Kodaira),2012-11-17,08:01～09:00,0.0419,0.0355,0.0377,
小平 (Kodaira),2012-11-17,07:01～08:00,0.0399,0.0355,0.0374,
小平 (Kodaira),2012-11-17,06:01～07:00,0.0415,0.0353,0.0378,
小平 (Kodaira),2012-11-17,05:01～06:00,0.0410,0.0358,0.0376,
小平 (Kodaira),2012-11-17,04:01～05:00,0.0415,0.0352,0.0377,
小平 (Kodaira),2012-11-17,03:01～04:00,0.0410,0.0359,0.0378,
小平 (Kodaira),2012-11-17,02:01～03:00,0.0408,0.0344,0.0375,
小平 (Kodaira),2012-11-17,01:01～02:00,0.0411,0.0352,0.0375,
小平 (Kodaira),2012-11-17,00:01～01:00,0.0401,0.0354,0.0373,
小平 (Kodaira),2012-11-16,23:01～24:00,0.0405,0.0348,0.0375,
小平 (Kodaira),2012-11-16,22:01～23:00,0.0399,0.0354,0.0369,
小平 (Kodaira),2012-11-16,21:01～22:00,0.0400,0.0344,0.0364,
小平 (Kodaira),2012-11-16,20:01～21:00,0.0394,0.0349,0.0363,
小平 (Kodaira),2012-11-16,19:01～20:00,0.0384,0.0344,0.0360,
小平 (Kodaira),2012-11-16,18:01～19:00,0.0389,0.0343,0.0362,
小平 (Kodaira),2012-11-16,17:01～18:00,0.0380,0.0341,0.0360,
小平 (Kodaira),2012-11-16,16:01～17:00,0.0376,0.0338,0.0358,
小平 (Kodaira),2012-11-16,15:01～16:00,0.0385,0.0339,0.0359,
小平 (Kodaira),2012-11-16,14:01～15:00,0.0377,0.0336,0.0358,
小平 (Kodaira),2012-11-16,13:01～14:00,0.0395,0.0346,0.0366,
小平 (Kodaira),2012-11-16,12:01～13:00,0.0382,0.0346,0.0364,
小平 (Kodaira),2012-11-16,11:01～12:00,0.0387,0.0347,0.0365,
小平 (Kodaira),2012-11-16,10:01～11:00,0.0404,0.0342,0.0367,
小平 (Kodaira),2012-11-16,09:01～10:00,0.0394,0.0353,0.0367,
小平 (Kodaira),2012-11-16,08:01～09:00,0.0396,0.0347,0.0369,
小平 (Kodaira),2012-11-16,07:01～08:00,0.0378,0.0346,0.0363,
小平 (Kodaira),2012-11-16,06:01～07:00,0.0387,0.0346,0.0361,
小平 (Kodaira),2012-11-16,05:01～06:00,0.0412,0.0340,0.0363,
小平 (Kodaira),2012-11-16,04:01～05:00,0.0384,0.0340,0.0363,
小平 (Kodaira),2012-11-16,03:01～04:00,0.0386,0.0340,0.0361,
小平 (Kodaira),2012-11-16,02:01～03:00,0.0389,0.0346,0.0365,
小平 (Kodaira),2012-11-16,01:01～02:00,0.0397,0.0349,0.0364,
小平 (Kodaira),2012-11-16,00:01～01:00,0.0406,0.0341,0.0365,
小平 (Kodaira),2012-11-15,23:01～24:00,0.0392,0.0343,0.0365,
小平 (Kodaira),2012-11-15,22:01～23:00,0.0401,0.0345,0.0370,
小平 (Kodaira),2012-11-15,21:01～22:00,0.0397,0.0350,0.0368,
小平 (Kodaira),2012-11-15,20:01～21:00,0.0390,0.0354,0.0368,
小平 (Kodaira),2012-11-15,19:01～20:00,0.0397,0.0346,0.0369,
小平 (Kodaira),2012-11-15,18:01～19:00,0.0395,0.0355,0.0369,
小平 (Kodaira),2012-11-15,17:01～18:00,0.0402,0.0350,0.0369,
小平 (Kodaira),2012-11-15,16:01～17:00,0.0393,0.0354,0.0368,
小平 (Kodaira),2012-11-15,15:01～16:00,0.0400,0.0356,0.0370,
小平 (Kodaira),2012-11-15,14:01～15:00,0.0405,0.0351,0.0372,
小平 (Kodaira),2012-11-15,13:01～14:00,0.0408,0.0360,0.0380,
小平 (Kodaira),2012-11-15,12:01～13:00,0.0419,0.0357,0.0379,
小平 (Kodaira),2012-11-15,11:01～12:00,0.0408,0.0354,0.0381,
小平 (Kodaira),2012-11-15,10:01～11:00,0.0436,0.0365,0.0386,
小平 (Kodaira),2012-11-15,09:01～10:00,0.0427,0.0359,0.0391,
小平 (Kodaira),2012-11-15,08:01～09:00,0.0415,0.0360,0.0385,
小平 (Kodaira),2012-11-15,07:01～08:00,0.0422,0.0365,0.0391,
小平 (Kodaira),2012-11-15,06:01～07:00,0.0419,0.0362,0.0388,
小平 (Kodaira),2012-11-15,05:01～06:00,0.0417,0.0362,0.0386,
小平 (Kodaira),2012-11-15,04:01～05:00,0.0412,0.0361,0.0384,
小平 (Kodaira),2012-11-15,03:01～04:00,0.0412,0.0354,0.0374,
小平 (Kodaira),2012-11-15,02:01～03:00,0.0411,0.0356,0.0377,
小平 (Kodaira),2012-11-15,01:01～02:00,0.0403,0.0356,0.0376,
小平 (Kodaira),2012-11-15,00:01～01:00,0.0413,0.0359,0.0377,
小平 (Kodaira),2012-11-14,23:01～24:00,0.0411,0.0357,0.0372,
小平 (Kodaira),2012-11-14,22:01～23:00,0.0385,0.0343,0.0364,
小平 (Kodaira),2012-11-14,21:01～22:00,0.0390,0.0347,0.0364,
小平 (Kodaira),2012-11-14,20:01～21:00,0.0398,0.0347,0.0367,
小平 (Kodaira),2012-11-14,19:01～20:00,0.0397,0.0344,0.0365,
小平 (Kodaira),2012-11-14,18:01～19:00,0.0386,0.0346,0.0363,
小平 (Kodaira),2012-11-14,17:01～18:00,0.0385,0.0339,0.0366,
小平 (Kodaira),2012-11-14,16:01～17:00,0.0400,0.0339,0.0366,
小平 (Kodaira),2012-11-14,15:01～16:00,0.0395,0.0339,0.0363,
小平 (Kodaira),2012-11-14,14:01～15:00,0.0396,0.0343,0.0364,
小平 (Kodaira),2012-11-14,13:01～14:00,0.0403,0.0346,0.0370,
小平 (Kodaira),2012-11-14,12:01～13:00,0.0406,0.0347,0.0369,
小平 (Kodaira),2012-11-14,11:01～12:00,0.0409,0.0347,0.0369,
小平 (Kodaira),2012-11-14,10:01～11:00,0.0408,0.0345,0.0369,
小平 (Kodaira),2012-11-14,09:01～10:00,0.0399,0.0353,0.0372,
小平 (Kodaira),2012-11-14,08:01～09:00,0.0395,0.0351,0.0371,
小平 (Kodaira),2012-11-14,07:01～08:00,0.0408,0.0353,0.0372,
小平 (Kodaira),2012-11-14,06:01～07:00,0.0402,0.0342,0.0368,
小平 (Kodaira),2012-11-14,05:01～06:00,0.0397,0.0356,0.0368,
小平 (Kodaira),2012-11-14,04:01～05:00,0.0402,0.0349,0.0369,
小平 (Kodaira),2012-11-14,03:01～04:00,0.0399,0.0342,0.0369,
小平 (Kodaira),2012-11-14,02:01～03:00,0.0407,0.0354,0.0373,
小平 (Kodaira),2012-11-14,01:01～02:00,0.0397,0.0354,0.0366,
小平 (Kodaira),2012-11-14,00:01～01:00,0.0397,0.0340,0.0368,
小平 (Kodaira),2012-11-13,23:01～24:00,0.0393,0.0354,0.0368,
小平 (Kodaira),2012-11-13,22:01～23:00,0.0412,0.0358,0.0378,
小平 (Kodaira),2012-11-13,21:01～22:00,0.0415,0.0355,0.0377,
小平 (Kodaira),2012-11-13,20:01～21:00,0.0403,0.0354,0.0372,
小平 (Kodaira),2012-11-13,19:01～20:00,0.0406,0.0344,0.0371,
小平 (Kodaira),2012-11-13,18:01～19:00,0.0393,0.0350,0.0372,
小平 (Kodaira),2012-11-13,17:01～18:00,0.0394,0.0348,0.0369,
小平 (Kodaira),2012-11-13,16:01～17:00,0.0388,0.0348,0.0366,
小平 (Kodaira),2012-11-13,15:01～16:00,0.0384,0.0343,0.0366,
小平 (Kodaira),2012-11-13,14:01～15:00,0.0410,0.0351,0.0367,
小平 (Kodaira),2012-11-13,13:01～14:00,0.0406,0.0342,0.0369,
小平 (Kodaira),2012-11-13,12:01～13:00,0.0410,0.0356,0.0374,
小平 (Kodaira),2012-11-13,11:01～12:00,0.0416,0.0355,0.0372,
小平 (Kodaira),2012-11-13,10:01～11:00,0.0401,0.0345,0.0374,
小平 (Kodaira),2012-11-13,09:01～10:00,0.0407,0.0349,0.0377,
小平 (Kodaira),2012-11-13,08:01～09:00,0.0418,0.0354,0.0380,
小平 (Kodaira),2012-11-13,07:01～08:00,0.0410,0.0351,0.0379,
小平 (Kodaira),2012-11-13,06:01～07:00,0.0396,0.0351,0.0372,
小平 (Kodaira),2012-11-13,05:01～06:00,0.0392,0.0352,0.0368,
小平 (Kodaira),2012-11-13,04:01～05:00,0.0416,0.0355,0.0367,
小平 (Kodaira),2012-11-13,03:01～04:00,0.0385,0.0339,0.0366,
小平 (Kodaira),2012-11-13,02:01～03:00,0.0396,0.0342,0.0368,
小平 (Kodaira),2012-11-13,01:01～02:00,0.0400,0.0349,0.0367,
小平 (Kodaira),2012-11-13,00:01～01:00,0.0398,0.0346,0.0368,
小平 (Kodaira),2012-11-12,23:01～24:00,0.0407,0.0342,0.0366,
小平 (Kodaira),2012-11-12,22:01～23:00,0.0390,0.0344,0.0364,
小平 (Kodaira),2012-11-12,21:01～22:00,0.0387,0.0339,0.0364,
小平 (Kodaira),2012-11-12,20:01～21:00,0.0401,0.0344,0.0366,
小平 (Kodaira),2012-11-12,19:01～20:00,0.0392,0.0343,0.0361,
小平 (Kodaira),2012-11-12,18:01～19:00,0.0388,0.0340,0.0361,
小平 (Kodaira),2012-11-12,17:01～18:00,0.0376,0.0332,0.0356,
小平 (Kodaira),2012-11-12,16:01～17:00,0.0378,0.0337,0.0359,
小平 (Kodaira),2012-11-12,15:01～16:00,0.0381,0.0340,0.0360,
小平 (Kodaira),2012-11-12,14:01～15:00,0.0402,0.0341,0.0362,
小平 (Kodaira),2012-11-12,13:01～14:00,0.0384,0.0337,0.0362,
小平 (Kodaira),2012-11-12,12:01～13:00,0.0381,0.0334,0.0362,
小平 (Kodaira),2012-11-12,11:01～12:00,0.0400,0.0343,0.0363,
小平 (Kodaira),2012-11-12,10:01～11:00,0.0384,0.0341,0.0365,
小平 (Kodaira),2012-11-12,09:01～10:00,0.0394,0.0348,0.0370,
小平 (Kodaira),2012-11-12,08:01～09:00,0.0390,0.0347,0.0366,
小平 (Kodaira),2012-11-12,07:01～08:00,0.0381,0.0343,0.0362,
小平 (Kodaira),2012-11-12,06:01～07:00,0.0373,0.0339,0.0356,
小平 (Kodaira),2012-11-12,05:01～06:00,0.0377,0.0338,0.0358,
小平 (Kodaira),2012-11-12,04:01～05:00,0.0375,0.0341,0.0361,
小平 (Kodaira),2012-11-12,03:01～04:00,0.0376,0.0340,0.0363,
小平 (Kodaira),2012-11-12,02:01～03:00,0.0399,0.0350,0.0373,
小平 (Kodaira),2012-11-12,01:01～02:00,0.0470,0.0364,0.0416,
小平 (Kodaira),2012-11-12,00:01～01:00,0.0504,0.0429,0.0462,
